• In Russia
  • List of Countries
  • For 7 days
  • Water Temperature
  • Satellite Maps
  • Weather Map
  • Weather Widgets
  • user-avatar
    Login

    Hourly Weather Angir

    Today, 26 April, Friday

    Time Temperature Precipitation Wind Pressure Humidity
    00:00 +5°C° 0 mm 2 mps 702 mmHg 43%
    01:00 +5°C° 0 mm 2 mps 701 mmHg 46%
    02:00 +5°C° 0 mm 2 mps 701 mmHg 49%
    03:00 +4°C° 0 mm 2 mps 700 mmHg 53%
    04:00 +4°C° 0 mm 2 mps 700 mmHg 56%
    05:00 +5°C° 0.1 mm 2 mps 700 mmHg 56%
    06:00 +5°C° 0.1 mm 3 mps 699 mmHg 57%
    07:00 +7°C° 0.1 mm 3 mps 699 mmHg 57%
    08:00 +8°C° 0.1 mm 3 mps 699 mmHg 55%
    09:00 +9°C° 0.1 mm 2 mps 699 mmHg 53%
    10:00 +10°C° 0.1 mm 2 mps 699 mmHg 50%
    11:00 +12°C° 0 mm 3 mps 699 mmHg 46%
    12:00 +13°C° 0 mm 4 mps 700 mmHg 42%
    13:00 +14°C° 0 mm 6 mps 700 mmHg 39%
    14:00 +14°C° 0 mm 6 mps 700 mmHg 41%
    15:00 +13°C° 0 mm 5 mps 700 mmHg 43%
    16:00 +13°C° 0 mm 5 mps 700 mmHg 45%
    17:00 +11°C° 0 mm 4 mps 701 mmHg 50%
    18:00 +10°C° 0 mm 3 mps 701 mmHg 55%
    19:00 +10°C° 0 mm 1 mps 701 mmHg 59%
    20:00 +9°C° 0 mm 1 mps 702 mmHg 63%
    21:00 +8°C° 0 mm 1 mps 702 mmHg 66%
    22:00 +5°C° 0 mm 2 mps 703 mmHg 70%
    23:00 +6°C° 0 mm 1 mps 703 mmHg 70%

    Tomorrow, 27 April, Saturday

    Time Temperature Precipitation Wind Pressure Humidity
    00:00 +6°C° 0 mm 1 mps 703 mmHg 70%
    01:00 +5°C° 0 mm 1 mps 703 mmHg 71%
    02:00 +5°C° 0 mm 1 mps 704 mmHg 71%
    03:00 +5°C° 0 mm 1 mps 704 mmHg 71%
    04:00 +5°C° 0 mm 1 mps 704 mmHg 70%
    05:00 +7°C° 0 mm 1 mps 704 mmHg 63%
    06:00 +9°C° 0 mm 1 mps 704 mmHg 55%
    07:00 +11°C° 0 mm 1 mps 704 mmHg 47%
    08:00 +12°C° 0 mm 1 mps 704 mmHg 42%
    09:00 +14°C° 0 mm 2 mps 704 mmHg 36%
    10:00 +16°C° 0 mm 3 mps 704 mmHg 31%
    11:00 +17°C° 0 mm 3 mps 703 mmHg 29%
    12:00 +17°C° 0 mm 4 mps 703 mmHg 27%
    13:00 +18°C° 0 mm 4 mps 702 mmHg 25%
    14:00 +17°C° 0.1 mm 3 mps 701 mmHg 27%
    15:00 +17°C° 0.1 mm 3 mps 701 mmHg 29%
    16:00 +16°C° 0.1 mm 2 mps 700 mmHg 31%
    17:00 +15°C° 0 mm 1 mps 700 mmHg 37%
    18:00 +13°C° 0 mm 1 mps 699 mmHg 42%
    19:00 +11°C° 0 mm 1 mps 699 mmHg 48%
    20:00 +11°C° 0.4 mm 1 mps 699 mmHg 53%
    21:00 +11°C° 0.4 mm 1 mps 700 mmHg 59%
    22:00 +10°C° 0.4 mm 1 mps 700 mmHg 64%
    23:00 +9°C° 0 mm 1 mps 700 mmHg 66%

    Day after tomorrow, 28 April, Sunday

    Time Temperature Precipitation Wind Pressure Humidity
    00:00 +8°C° 0 mm 1 mps 700 mmHg 69%
    01:00 +8°C° 0 mm 1 mps 700 mmHg 71%
    02:00 +6°C° 0 mm 0 mps 700 mmHg 72%
    03:00 +5°C° 0 mm 0 mps 699 mmHg 73%
    04:00 +5°C° 0 mm 0 mps 699 mmHg 73%
    05:00 +7°C° 0 mm 0 mps 700 mmHg 66%
    06:00 +9°C° 0 mm 0 mps 700 mmHg 59%
    07:00 +11°C° 0 mm 0 mps 700 mmHg 52%
    08:00 +13°C° 0 mm 1 mps 700 mmHg 47%
    09:00 +15°C° 0 mm 1 mps 700 mmHg 41%
    10:00 +16°C° 0 mm 1 mps 700 mmHg 35%
    11:00 +18°C° 0 mm 1 mps 700 mmHg 33%
    12:00 +18°C° 0 mm 1 mps 699 mmHg 32%
    13:00 +18°C° 0 mm 2 mps 699 mmHg 30%
    14:00 +18°C° 0 mm 2 mps 698 mmHg 31%
    15:00 +17°C° 0 mm 3 mps 698 mmHg 33%
    16:00 +17°C° 0 mm 3 mps 697 mmHg 34%
    17:00 +13°C° 0.3 mm 6 mps 697 mmHg 46%
    18:00 +9°C° 0.3 mm 8 mps 698 mmHg 58%
    19:00 +5°C° 0.3 mm 10 mps 698 mmHg 70%
    20:00 +3°C° 0.2 mm 10 mps 700 mmHg 71%
    21:00 +2°C° 0.2 mm 10 mps 701 mmHg 73%
    22:00 +1°C° 0.2 mm 10 mps 703 mmHg 74%
    23:00 0°C° 0 mm 9 mps 704 mmHg 70%

    29 April, Monday

    Time Temperature Precipitation Wind Pressure Humidity
    00:00 0°C° 0 mm 7 mps 705 mmHg 66%
    01:00 +1°C° 0 mm 6 mps 706 mmHg 63%
    02:00 0°C° 0 mm 5 mps 706 mmHg 63%
    03:00 0°C° 0 mm 4 mps 707 mmHg 63%
    04:00 0°C° 0 mm 3 mps 707 mmHg 62%
    05:00 +1°C° 0 mm 4 mps 707 mmHg 58%
    06:00 +3°C° 0 mm 4 mps 708 mmHg 53%
    07:00 +3°C° 0 mm 5 mps 708 mmHg 48%
    08:00 +5°C° 0 mm 5 mps 708 mmHg 41%
    09:00 +7°C° 0 mm 5 mps 708 mmHg 35%
    10:00 +9°C° 0 mm 5 mps 708 mmHg 28%
    11:00 +10°C° 0 mm 6 mps 707 mmHg 27%
    12:00 +11°C° 0 mm 6 mps 706 mmHg 25%
    13:00 +12°C° 0 mm 7 mps 706 mmHg 24%
    14:00 +14°C° 0 mm 6 mps 705 mmHg 23%
    15:00 +14°C° 0 mm 6 mps 705 mmHg 22%
    16:00 +15°C° 0 mm 5 mps 705 mmHg 21%
    17:00 +13°C° 0 mm 4 mps 704 mmHg 26%
    18:00 +12°C° 0 mm 2 mps 704 mmHg 31%
    19:00 +10°C° 0 mm 1 mps 704 mmHg 36%
    20:00 +9°C° 0 mm 1 mps 704 mmHg 39%
    21:00 +8°C° 0 mm 1 mps 704 mmHg 41%
    22:00 +6°C° 0 mm 0 mps 704 mmHg 43%
    23:00 +5°C° 0 mm 0 mps 704 mmHg 44%

    30 April, Tuesday

    Time Temperature Precipitation Wind Pressure Humidity
    00:00 +5°C° 0 mm 0 mps 704 mmHg 45%
    01:00 +4°C° 0 mm 0 mps 703 mmHg 47%
    02:00 +4°C° 0 mm 0 mps 703 mmHg 47%
    03:00 +4°C° 0 mm 0 mps 702 mmHg 48%
    04:00 +3°C° 0 mm 0 mps 702 mmHg 48%
    05:00 +5°C° 0 mm 0 mps 702 mmHg 43%
    06:00 +8°C° 0 mm 1 mps 702 mmHg 39%
    07:00 +10°C° 0 mm 1 mps 702 mmHg 34%
    08:00 +12°C° 0 mm 1 mps 702 mmHg 30%
    09:00 +15°C° 0 mm 1 mps 701 mmHg 27%
    10:00 +18°C° 0 mm 1 mps 701 mmHg 23%
    11:00 +19°C° 0 mm 1 mps 701 mmHg 21%
    12:00 +19°C° 0 mm 2 mps 700 mmHg 19%
    13:00 +20°C° 0 mm 2 mps 700 mmHg 16%
    14:00 +20°C° 0 mm 3 mps 700 mmHg 17%
    15:00 +20°C° 0 mm 4 mps 700 mmHg 18%
    16:00 +20°C° 0 mm 5 mps 700 mmHg 19%
    17:00 +18°C° 0 mm 4 mps 700 mmHg 25%
    18:00 +16°C° 0 mm 3 mps 700 mmHg 31%
    19:00 +14°C° 0 mm 2 mps 700 mmHg 37%
    20:00 +13°C° 0 mm 1 mps 700 mmHg 39%
    21:00 +12°C° 0 mm 1 mps 701 mmHg 41%
    22:00 +11°C° 0 mm 1 mps 701 mmHg 43%
    23:00 +11°C° 0 mm 1 mps 701 mmHg 45%

    1 May, Wednesday

    Time Temperature Precipitation Wind Pressure Humidity
    00:00 +10°C° 0 mm 1 mps 701 mmHg 47%
    01:00 +9°C° 0 mm 0 mps 702 mmHg 49%
    02:00 +8°C° 0 mm 0 mps 702 mmHg 50%
    03:00 +9°C° 0 mm 1 mps 702 mmHg 51%
    04:00 +9°C° 0 mm 1 mps 702 mmHg 52%
    05:00 +11°C° 0 mm 1 mps 702 mmHg 47%
    06:00 +12°C° 0 mm 2 mps 702 mmHg 42%
    07:00 +14°C° 0 mm 2 mps 702 mmHg 38%
    08:00 +16°C° 0 mm 3 mps 702 mmHg 34%
    09:00 +18°C° 0 mm 4 mps 702 mmHg 30%
    10:00 +20°C° 0 mm 5 mps 701 mmHg 26%
    11:00 +21°C° 0 mm 5 mps 701 mmHg 24%
    12:00 +22°C° 0 mm 6 mps 700 mmHg 21%
    13:00 +24°C° 0 mm 6 mps 700 mmHg 18%
    14:00 +24°C° 0 mm 6 mps 699 mmHg 17%
    15:00 +24°C° 0 mm 6 mps 699 mmHg 16%
    16:00 +24°C° 0 mm 6 mps 698 mmHg 15%
    17:00 +22°C° 0 mm 4 mps 698 mmHg 18%
    18:00 +21°C° 0 mm 3 mps 697 mmHg 22%
    19:00 +19°C° 0 mm 2 mps 697 mmHg 25%
    20:00 +18°C° 0 mm 2 mps 697 mmHg 27%
    21:00 +16°C° 0 mm 2 mps 697 mmHg 28%
    22:00 +15°C° 0 mm 2 mps 696 mmHg 29%
    23:00 +14°C° 0 mm 2 mps 696 mmHg 29%
    Show more